FW6368 Weather Reports


Display with metric or nautical units.
time (UTC)temp
F
wind
direction
speed
MPH
gust
MPH
rain 1hr
in
rain 24hr
in
rain mn
in
humidity
%
barometer
mb
20260510230555 84 0 0.0 3.0 0.00 0.02 0.02 76 1015.8
20260510230054 84 43 0.0 5.0 0.00 0.02 0.02 76 1015.8
20260510225551 84 349 1.0 6.0 0.00 0.02 0.02 75 1015.7
20260510225051 84 339 2.0 6.0 0.00 0.02 0.02 75 1015.8
20260510224558 84 334 2.0 5.0 0.00 0.02 0.02 74 1015.7
20260510224052 85 0 1.0 4.0 0.00 0.02 0.02 75 1015.7
20260510223550 85 307 1.0 6.0 0.00 0.02 0.02 74 1015.7
20260510223101 85 329 1.0 7.0 0.00 0.02 0.02 74 1015.7
20260510222551 85 274 1.0 7.0 0.00 0.02 0.02 74 1015.6
20260510222051 86 331 1.0 4.0 0.00 0.02 0.02 73 1015.7
20260510221554 86 32 1.0 4.0 0.00 0.02 0.02 72 1015.8
20260510221051 86 0 1.0 4.0 0.00 0.02 0.02 72 1015.8
20260510220554 86 259 1.0 4.0 0.00 0.02 0.02 72 1015.7
20260510220052 86 292 1.0 4.0 0.00 0.02 0.02 71 1015.7
20260510215550 86 344 1.0 5.0 0.00 0.02 0.02 71 1015.7
20260510215054 87 244 1.0 5.0 0.00 0.02 0.02 71 1015.7
20260510214557 87 53 1.0 5.0 0.00 0.02 0.02 71 1015.5
20260510214051 88 317 2.0 7.0 0.00 0.02 0.02 70 1015.6
20260510213551 88 331 1.0 9.0 0.00 0.02 0.02 71 1015.7
20260510213055 87 348 2.0 9.0 0.00 0.02 0.02 69 1015.7
20260510212550 87 316 2.0 9.0 0.00 0.02 0.02 68 1015.8
20260510212051 88 283 2.0 9.0 0.00 0.02 0.02 68 1015.8
20260510211557 88 0 1.0 8.0 0.00 0.02 0.02 66 1015.8
20260510211052 89 90 3.0 8.0 0.00 0.02 0.02 63 1015.7
20260510210550 89 347 2.0 8.0 0.00 0.02 0.02 64 1015.7
20260510210054 89 329 2.0 8.0 0.00 0.02 0.02 64 1015.7
20260510205551 89 292 3.0 8.0 0.00 0.02 0.02 65 1015.7
20260510205051 90 254 1.0 6.0 0.00 0.02 0.02 65 1015.7
20260510204558 89 288 2.0 6.0 0.00 0.02 0.02 66 1015.7
20260510204051 89 355 2.0 6.0 0.00 0.02 0.02 64 1015.8
20260510203551 89 275 2.0 8.0 0.00 0.02 0.02 63 1015.8
20260510203055 90 0 2.0 8.0 0.00 0.02 0.02 62 1015.8
20260510202552 91 49 2.0 8.0 0.00 0.02 0.02 62 1015.8
20260510202051 90 332 2.0 6.0 0.00 0.02 0.02 62 1015.7
20260510201555 90 240 2.0 7.0 0.00 0.02 0.02 62 1015.7
20260510201054 90 355 3.0 8.0 0.00 0.02 0.02 62 1015.5
20260510200554 89 0 3.0 8.0 0.00 0.02 0.02 62 1015.6
20260510200108 89 346 2.0 7.0 0.00 0.02 0.02 62 1015.5
20260510195552 89 270 2.0 8.0 0.00 0.02 0.02 62 1015.6
20260510195051 90 336 2.0 8.0 0.00 0.02 0.02 64 1015.5
20260510194607 90 102 2.0 6.0 0.00 0.02 0.02 63 1015.6
20260510194052 90 11 1.0 6.0 0.00 0.02 0.02 65 1015.7
20260510193553 90 272 2.0 6.0 0.00 0.02 0.02 65 1015.6
20260510193113 90 187 2.0 4.0 0.00 0.02 0.02 63 1015.7
20260510192548 90 308 0.0 7.0 0.00 0.02 0.02 64 1015.7
20260510192048 90 180 2.0 7.0 0.00 0.02 0.02 66 1015.7
20260510191558 91 205 2.0 6.0 0.00 0.02 0.02 64 1015.7
20260510191048 91 325 2.0 8.0 0.00 0.02 0.02 62 1015.8
20260510190547 91 282 1.0 8.0 0.00 0.02 0.02 64 1015.8
20260510185551 90 211 1.0 8.0 0.00 0.02 0.02 64 1015.8
20260510185051 91 71 1.0 8.0 0.00 0.02 0.02 63 1015.8
20260510184603 91 151 2.0 8.0 0.00 0.02 0.02 64 1015.9
20260510184051 90 327 3.0 8.0 0.00 0.02 0.02 63 1015.9
20260510183550 91 355 1.0 6.0 0.00 0.02 0.02 63 1016.0
20260510183055 91 182 1.0 9.0 0.00 0.02 0.02 65 1016.1
20260510182549 91 117 1.0 9.0 0.00 0.02 0.02 63 1016.0
20260510182049 91 223 1.0 7.0 0.00 0.02 0.02 65 1016.0
20260510181555 90 346 1.0 8.0 0.00 0.02 0.02 64 1016.1
20260510181048 90 168 1.0 8.0 0.00 0.02 0.02 63 1016.2
20260510180549 91 256 2.0 8.0 0.00 0.02 0.02 63 1016.3
20260510180056 91 101 2.0 8.0 0.00 0.02 0.02 63 1016.2
20260510175551 91 102 1.0 6.0 0.00 0.02 0.02 64 1016.4
20260510175049 91 168 1.0 7.0 0.00 0.02 0.02 66 1016.4
20260510174605 90 134 1.0 7.0 0.00 0.02 0.02 68 1016.5
20260510174054 90 0 1.0 4.0 0.00 0.02 0.02 68 1016.5
20260510173552 90 254 1.0 6.0 0.00 0.02 0.02 68 1016.7
20260510173059 91 0 1.0 6.0 0.00 0.02 0.02 67 1016.6
20260510172553 91 0 1.0 6.0 0.00 0.02 0.02 65 1016.6
20260510172053 90 265 1.0 6.0 0.00 0.02 0.02 70 1016.7
20260510171554 91 257 1.0 5.0 0.00 0.02 0.02 69 1016.8
20260510171053 90 300 2.0 5.0 0.00 0.02 0.02 70 1016.9
20260510170552 90 178 2.0 6.0 0.00 0.02 0.02 70 1017.0
20260510170057 90 0 1.0 6.0 0.00 0.02 0.02 71 1017.0
20260510165556 90 167 1.0 7.0 0.00 0.02 0.02 70 1017.1
20260510165053 90 158 1.0 7.0 0.00 0.02 0.02 72 1017.2
20260510164556 89 209 1.0 7.0 0.00 0.02 0.02 72 1017.2
20260510164052 89 188 1.0 5.0 0.00 0.02 0.02 71 1017.2
20260510163554 89 148 1.0 5.0 0.00 0.02 0.02 74 1017.2
20260510163054 88 90 1.0 4.0 0.00 0.02 0.02 74 1017.2
20260510162552 89 147 1.0 5.0 0.00 0.02 0.02 73 1017.2
20260510162052 88 149 0.0 6.0 0.00 0.02 0.02 73 1017.2
20260510161555 88 135 1.0 6.0 0.00 0.02 0.02 73 1017.3
20260510161053 88 223 1.0 6.0 0.00 0.02 0.02 71 1017.3
20260510160554 88 273 2.0 6.0 0.00 0.02 0.02 72 1017.3
20260510160055 88 0 1.0 4.0 0.00 0.02 0.02 72 1017.3
20260510155552 88 178 1.0 6.0 0.00 0.02 0.02 73 1017.3
20260510155052 88 0 1.0 6.0 0.00 0.02 0.02 74 1017.4
20260510154557 88 180 1.0 5.0 0.00 0.02 0.02 73 1017.4
20260510154054 87 143 1.0 5.0 0.00 0.02 0.02 74 1017.4
20260510153552 87 306 1.0 4.0 0.00 0.02 0.02 73 1017.3
20260510153054 86 0 1.0 5.0 0.00 0.02 0.02 75 1017.2
20260510152552 86 178 2.0 11.0 0.00 0.02 0.02 74 1017.2
20260510152052 86 195 1.0 11.0 0.00 0.02 0.02 76 1017.2
20260510151554 86 133 2.0 6.0 0.00 0.02 0.02 76 1017.3
20260510151052 86 132 1.0 5.0 0.00 0.02 0.02 76 1017.3
20260510150553 86 261 2.0 5.0 0.00 0.02 0.02 74 1017.3
20260510150121 86 141 1.0 6.0 0.00 0.02 0.02 78 1017.3
20260510145555 86 0 1.0 6.0 0.00 0.02 0.02 77 1017.3
20260510145053 85 0 1.0 5.0 0.00 0.02 0.02 77 1017.3
20260510144610 85 153 1.0 4.0 0.00 0.02 0.02 79 1017.3
20260510144056 85 114 1.0 7.0 0.00 0.02 0.02 78 1017.4
20260510143554 85 0 0.0 7.0 0.00 0.02 0.02 79 1017.3
20260510143056 84 119 1.0 6.0 0.00 0.02 0.02 79 1017.3
20260510142552 83 215 1.0 4.0 0.00 0.02 0.02 79 1017.3
20260510142052 83 186 0.0 5.0 0.00 0.02 0.02 80 1017.3
20260510141555 83 298 1.0 5.0 0.00 0.02 0.02 79 1017.3
20260510141052 83 192 1.0 5.0 0.00 0.02 0.02 81 1017.2
20260510140552 83 178 1.0 5.0 0.00 0.02 0.02 81 1017.3
20260510140056 83 150 0.0 4.0 0.00 0.02 0.02 81 1017.0
20260510135552 82 109 1.0 5.0 0.00 0.02 0.02 81 1016.8
20260510135052 82 173 1.0 5.0 0.00 0.02 0.02 82 1016.8
20260510134605 82 186 0.0 4.0 0.00 0.02 0.02 81 1016.8
20260510134053 81 146 0.0 4.0 0.00 0.02 0.02 82 1016.8
20260510133552 81 102 0.0 4.0 0.00 0.02 0.02 83 1016.9
20260510133054 80 171 0.0 4.0 0.00 0.02 0.02 83 1016.7
20260510132554 80 0 0.0 4.0 0.00 0.02 0.02 83 1016.8
20260510132053 79 97 1.0 4.0 0.00 0.02 0.02 85 1016.8
20260510131557 79 0 0.0 5.0 0.00 0.02 0.02 86 1016.9
20260510131053 78 161 1.0 5.0 0.00 0.02 0.02 87 1016.9
20260510130552 77 117 1.0 4.0 0.00 0.02 0.02 88 1016.7
20260510130053 77 88 1.0 4.0 0.00 0.02 0.02 89 1016.7
20260510125553 76 132 0.0 2.0 0.00 0.02 0.02 90 1016.6
20260510125052 76 0 1.0 3.0 0.00 0.02 0.02 91 1016.7
20260510124600 75 0 0.0 3.0 0.00 0.02 0.02 91 1016.7
20260510124052 75 0 0.0 3.0 0.00 0.02 0.02 91 1016.8
20260510123553 75 0 0.0 3.0 0.00 0.02 0.02 91 1016.8
20260510123056 75 0 0.0 3.0 0.00 0.02 0.02 91 1016.5
20260510122552 75 119 0.0 1.0 0.00 0.02 0.02 92 1016.6
20260510122052 74 0 0.0 1.0 0.00 0.02 0.02 91 1016.5
20260510121557 74 0 0.0 1.0 0.00 0.02 0.02 91 1016.5
20260510121052 74 0 0.0 0.0 0.00 0.02 0.02 92 1016.5
20260510120552 74 0 0.0 0.0 0.00 0.02 0.02 92 1016.5
20260510115553 74 0 0.0 0.0 0.00 0.02 0.02 92 1016.3
20260510115050 74 0 0.0 0.0 0.00 0.02 0.02 92 1016.1
20260510114608 74 0 0.0 0.0 0.00 0.02 0.02 92 1016.0
20260510114052 73 0 0.0 0.0 0.00 0.02 0.02 92 1016.0
20260510113552 73 0 0.0 0.0 0.00 0.02 0.02 91 1015.8
20260510113058 73 0 0.0 0.0 0.00 0.02 0.02 91 1015.8
20260510112553 73 0 0.0 0.0 0.00 0.02 0.02 92 1015.5
20260510112053 73 0 0.0 0.0 0.00 0.02 0.02 92 1015.5
20260510111553 73 0 0.0 0.0 0.00 0.02 0.02 92 1015.5
20260510111052 72 0 0.0 0.0 0.00 0.02 0.02 91 1015.5
20260510110556 72 0 0.0 0.0 0.00 0.02 0.02 91 1015.5
20260510110056 72 0 0.0 0.0 0.00 0.02 0.02 91 1015.5
20260510105553 72 0 0.0 0.0 0.00 0.02 0.02 91 1015.2
20260510105052 73 0 0.0 0.0 0.00 0.02 0.02 91 1015.1
20260510104600 73 0 0.0 0.0 0.00 0.02 0.02 91 1015.1
20260510104053 73 0 0.0 0.0 0.00 0.02 0.02 91 1015.1
20260510103553 73 0 0.0 0.0 0.00 0.02 0.02 91 1014.8
20260510103052 73 0 0.0 0.0 0.00 0.02 0.02 91 1014.6
20260510102552 73 0 0.0 1.0 0.00 0.02 0.02 91 1014.6
20260510102051 73 0 0.0 1.0 0.00 0.02 0.02 91 1014.6
20260510101559 73 0 0.0 1.0 0.00 0.02 0.02 91 1014.5
20260510101054 73 0 0.0 1.0 0.00 0.02 0.02 91 1014.3
20260510100553 72 0 0.0 1.0 0.00 0.02 0.02 91 1014.4
20260510095553 72 0 0.0 0.0 0.00 0.02 0.02 91 1014.4
20260510095052 73 0 0.0 1.0 0.00 0.02 0.02 91 1014.4
20260510094606 73 0 0.0 1.0 0.00 0.02 0.02 91 1014.3
20260510094052 73 0 0.0 1.0 0.00 0.02 0.02 91 1014.3
20260510093552 73 0 0.0 1.0 0.00 0.02 0.02 91 1014.2
20260510093100 73 0 0.0 1.0 0.00 0.02 0.02 91 1014.1
20260510092552 73 0 0.0 1.0 0.00 0.02 0.02 91 1014.1
20260510092054 73 0 0.0 1.0 0.00 0.02 0.02 91 1014.1
20260510091601 73 0 0.0 1.0 0.00 0.02 0.02 91 1013.9
20260510091052 73 0 0.0 1.0 0.00 0.02 0.02 91 1013.9
20260510090553 73 0 0.0 1.0 0.00 0.02 0.02 91 1013.8
20260510090057 73 0 0.0 1.0 0.00 0.02 0.02 91 1013.8
20260510085551 73 0 0.0 1.0 0.00 0.02 0.02 91 1013.9
20260510085051 73 0 0.0 0.0 0.00 0.02 0.02 91 1013.7
20260510084558 73 0 0.0 0.0 0.00 0.02 0.02 91 1013.8
20260510084050 73 0 0.0 0.0 0.00 0.02 0.02 91 1013.6
20260510083550 73 0 0.0 0.0 0.00 0.02 0.02 91 1013.7
20260510083107 73 0 0.0 1.0 0.00 0.02 0.02 91 1013.6
20260510082551 73 0 0.0 1.0 0.00 0.02 0.02 91 1013.7
20260510082052 73 0 0.0 1.0 0.00 0.02 0.02 91 1013.8
20260510081601 73 0 0.0 0.0 0.00 0.02 0.02 91 1013.9
20260510081053 74 0 0.0 1.0 0.00 0.02 0.02 91 1013.9
20260510080555 74 0 0.0 1.0 0.00 0.02 0.02 91 1013.9
20260510080100 74 0 0.0 1.0 0.00 0.02 0.02 91 1013.9
20260510075553 74 0 0.0 1.0 0.00 0.02 0.02 91 1013.9
20260510075052 74 0 0.0 1.0 0.00 0.02 0.02 90 1013.8
20260510074608 74 0 0.0 1.0 0.00 0.02 0.02 90 1013.8
20260510074049 74 0 0.0 1.0 0.00 0.02 0.02 90 1013.9
20260510073552 74 0 0.0 0.0 0.00 0.02 0.02 90 1013.8
20260510073059 74 0 0.0 0.0 0.00 0.02 0.02 90 1013.9
20260510072552 75 0 0.0 0.0 0.00 0.02 0.02 90 1013.9
20260510072052 75 0 0.0 1.0 0.00 0.02 0.02 90 1014.0
20260510071602 75 0 0.0 1.0 0.00 0.02 0.02 90 1014.0
20260510071051 75 0 0.0 1.0 0.00 0.02 0.02 90 1014.0
20260510070549 75 0 0.0 0.0 0.00 0.02 0.02 90 1014.2
20260510070112 75 0 0.0 1.0 0.00 0.02 0.02 90 1014.1
20260510065552 75 0 0.0 1.0 0.00 0.02 0.02 90 1014.1
20260510065051 75 0 0.0 1.0 0.00 0.02 0.02 90 1014.3
20260510064602 75 0 0.0 1.0 0.00 0.02 0.02 90 1014.3
20260510064051 75 0 0.0 1.0 0.00 0.02 0.02 90 1014.3
20260510063552 75 0 0.0 1.0 0.00 0.02 0.02 90 1014.3
20260510063100 76 0 0.0 1.0 0.00 0.02 0.02 90 1014.4
20260510062553 76 0 0.0 1.0 0.00 0.02 0.02 90 1014.4
20260510062052 76 360 0.0 1.0 0.00 0.02 0.02 90 1014.4
20260510061558 76 0 0.0 1.0 0.00 0.02 0.02 90 1014.7
20260510061052 76 0 0.0 1.0 0.00 0.02 0.02 89 1014.7
20260510060553 76 0 0.0 1.0 0.02 0.02 0.02 89 1014.8
20260510060059 77 0 0.0 1.0 0.02 0.02 0.02 89 1014.9
20260510055552 77 0 0.0 1.0 0.02 0.02 0.02 89 1014.9
20260510055050 77 0 0.0 1.0 0.02 0.02 0.02 89 1015.0
20260510054600 77 0 0.0 1.0 0.02 0.02 0.02 89 1015.1
20260510054049 77 0 0.0 1.0 0.02 0.02 0.02 89 1015.1
20260510053551 77 0 0.0 1.0 0.02 0.02 0.02 88 1015.2
20260510053054 77 0 0.0 1.0 0.02 0.02 0.02 88 1015.2
20260510052549 78 0 0.0 1.0 0.02 0.02 0.02 88 1015.1
20260510052051 78 0 0.0 1.0 0.02 0.02 0.02 87 1015.1
20260510051551 78 0 0.0 1.0 0.02 0.02 0.02 87 1015.2
20260510051054 78 0 0.0 1.0 0.02 0.02 0.02 86 1015.4
20260510050551 78 0 0.0 1.0 0.00 0.00 0.00 86 1015.2
20260510050058 78 0 0.0 0.0 0.00 0.00 0.00 86 1015.4
20260510045554 78 0 0.0 0.0 0.00 0.00 0.00 86 1015.4
20260510045051 78 0 0.0 0.0 0.00 0.00 0.00 86 1015.3
20260510044603 78 0 0.0 0.0 0.00 0.00 0.00 86 1015.3
20260510044053 78 0 0.0 0.0 0.00 0.00 0.00 86 1015.3
20260510043553 78 0 0.0 0.0 0.00 0.00 0.00 86 1015.4
20260510043054 78 0 0.0 0.0 0.00 0.00 0.00 86 1015.4
20260510042552 78 0 0.0 0.0 0.00 0.00 0.00 86 1015.4
20260510042053 78 0 0.0 0.0 0.00 0.00 0.00 86 1015.5
20260510041600 78 0 0.0 0.0 0.00 0.00 0.00 86 1015.4
20260510041050 77 0 0.0 0.0 0.00 0.00 0.00 87 1015.4
20260510040554 77 0 0.0 0.0 0.00 0.00 0.00 87 1015.4
20260510040059 77 0 0.0 0.0 0.00 0.00 0.00 87 1015.3
20260510035549 77 0 0.0 0.0 0.00 0.00 0.00 87 1015.3
20260510035051 77 0 0.0 0.0 0.00 0.00 0.00 87 1015.2
20260510034554 77 0 0.0 0.0 0.00 0.00 0.00 87 1015.2
20260510034052 77 0 0.0 0.0 0.00 0.00 0.00 87 1015.2
20260510033550 77 0 0.0 0.0 0.00 0.00 0.00 87 1015.2
20260510033120 77 0 0.0 0.0 0.00 0.00 0.00 87 1015.2
20260510032555 77 0 0.0 1.0 0.00 0.00 0.00 87 1015.1
20260510032052 77 0 0.0 1.0 0.00 0.00 0.00 87 1015.2
20260510031619 77 0 0.0 1.0 0.00 0.00 0.00 86 1015.2
20260510031055 77 0 0.0 0.0 0.00 0.00 0.00 86 1015.2
20260510030549 77 0 0.0 0.0 0.00 0.00 0.00 86 1015.1
20260510025553 77 0 0.0 0.0 0.00 0.00 0.00 86 1015.1
20260510025052 77 0 0.0 0.0 0.00 0.00 0.00 86 1015.3
20260510024552 77 0 0.0 0.0 0.00 0.00 0.00 85 1015.1
20260510024051 77 0 0.0 0.0 0.00 0.00 0.00 85 1015.1
20260510023549 78 0 0.0 0.0 0.00 0.00 0.00 84 1015.0
20260510023055 78 0 0.0 1.0 0.00 0.00 0.00 84 1015.0
20260510022550 78 0 0.0 1.0 0.00 0.00 0.00 84 1015.0
20260510022051 79 0 0.0 2.0 0.00 0.00 0.00 83 1015.2
20260510021557 79 0 0.0 3.0 0.00 0.00 0.00 83 1015.0
20260510021051 79 0 0.0 3.0 0.00 0.00 0.00 83 1015.0
20260510020553 79 355 0.0 3.0 0.00 0.00 0.00 83 1014.9
20260510020056 80 325 0.0 3.0 0.00 0.00 0.00 82 1014.9
20260510015556 80 0 0.0 3.0 0.00 0.00 0.00 82 1014.7
20260510015052 80 0 1.0 4.0 0.00 0.00 0.00 81 1014.7
20260510014606 80 352 1.0 4.0 0.00 0.00 0.00 81 1014.6
20260510014052 80 0 0.0 3.0 0.00 0.00 0.00 81 1014.5
20260510013552 80 38 0.0 3.0 0.00 0.00 0.00 81 1014.4
20260510013056 80 0 0.0 2.0 0.00 0.00 0.00 81 1014.4
20260510012553 80 0 0.0 2.0 0.00 0.00 0.00 81 1014.4
20260510012056 80 67 0.0 2.0 0.00 0.00 0.00 80 1014.1
20260510011559 80 0 0.0 1.0 0.00 0.00 0.00 80 1014.2
20260510011056 80 0 0.0 2.0 0.00 0.00 0.00 80 1014.3
20260510010549 80 0 0.0 2.0 0.00 0.00 0.00 80 1014.2
20260510005552 81 0 0.0 3.0 0.00 0.00 0.00 79 1014.0
20260510005054 81 331 0.0 3.0 0.00 0.00 0.00 79 1014.1
20260510004556 81 0 0.0 3.0 0.00 0.00 0.00 79 1013.9
20260510004049 81 0 1.0 3.0 0.00 0.00 0.00 79 1014.0
20260510003552 81 320 0.0 3.0 0.00 0.00 0.00 79 1013.9
20260510003100 81 0 0.0 3.0 0.00 0.00 0.00 79 1013.9
20260510002553 81 0 0.0 3.0 0.00 0.00 0.00 79 1013.8
20260510002052 81 262 0.0 2.0 0.00 0.00 0.00 79 1013.7
20260510001554 81 0 0.0 2.0 0.00 0.00 0.00 79 1013.6
20260510001054 81 264 0.0 3.0 0.00 0.00 0.00 79 1013.4
20260510000552 81 274 0.0 3.0 0.00 0.00 0.00 78 1013.4
20260510000057 81 184 0.0 4.0 0.00 0.00 0.00 78 1013.4
20260509235555 82 0 0.0 4.0 0.00 0.00 0.00 78 1013.4
20260509235052 82 302 0.0 4.0 0.00 0.00 0.00 77 1013.3
20260509234606 82 194 1.0 4.0 0.00 0.00 0.00 77 1013.2
20260509234053 82 267 1.0 4.0 0.00 0.00 0.00 76 1013.2
20260509233554 83 326 1.0 4.0 0.00 0.00 0.00 76 1013.2
20260509233050 83 0 1.0 6.0 0.00 0.00 0.00 75 1013.2
20260509232551 83 0 1.0 6.0 0.00 0.00 0.00 74 1013.2
20260509232053 84 0 1.0 4.0 0.00 0.00 0.00 73 1013.1
20260509231552 84 0 0.0 4.0 0.00 0.00 0.00 72 1013.2
20260509231051 84 188 0.0 3.0 0.00 0.00 0.00 72 1013.1